,

(GMT )
Bow Valley

Weather History for CWXA - October, 2012

Change the Weather History Date:

Monday, October 8, 2012

  Actual Average Record
Temperature  
Mean Temperature 35 °F -  
Max Temperature 39 °F - - ()
Min Temperature 30 °F - - ()
Degree Days  
Heating Degree Days 30    
Moisture  
Dew Point 36 °F    
Average Humidity 94    
Maximum Humidity 100    
Minimum Humidity 79    
Precipitation  
Precipitation 0.12 in - - ()
Sea Level Pressure  
Sea Level Pressure 30.07 in    
Wind  
Wind Speed 3 mph ()    
Max Wind Speed 8 mph    
Max Gust Speed -    
T = Trace of Precipitation, MM = Missing Value Source: Averaged Metar Reports

Daily Weather History Graph

Daily Weather History Graph

Search for Another Location

Airport or City:

Trip Planner

Search our weather history database for the weather conditions in past years. The results will help you decide how hot, cold, wet, or windy it might be!

Date:

Astronomy

Oct. 08, 2012 Rise Set
Actual Time 7:53 AM MDT 7:01 PM MDT
Civil Twilight 7:20 AM MDT 7:34 PM MDT
Nautical Twilight 6:41 AM MDT 8:12 PM MDT
Astronomical Twilight 6:02 AM MDT 8:51 PM MDT
Moon No Moon Rise 3:33 PM MDT (10/8)
Length of Visible Light 12h 14m
Length of Day
11h 08m
Last Quarter, 46% of the Moon is Illuminated
Oct 8
Last Quarter
Oct 15
New
Oct 21
First Quarter
Oct 29
Full
Nov 6
Last Quarter

Hourly Weather History & Observations

Time (MDT) Temp. Windchill Dew Point Humidity Pressure Visibility Wind Dir Wind Speed Gust Speed Precip Events Conditions
12:00 AM 43 °F - 39 °F 79% 30.02 in - ENE 8.1 mph - -  
12:00 AM 43.2 °F 38.4 °F 38.7 °F 84% 30.02 in - ENE 8.1 mph - N/A   Unknown
1:00 AM 42.3 °F 40.5 °F 38.7 °F 87% 30.00 in - ESE 3.5 mph - N/A   Unknown
3:00 AM 41.0 °F - 39.7 °F 95% 30.02 in - Calm Calm - 0.04 in   Unknown
4:00 AM 40.5 °F - 39.2 °F 95% 30.00 in - West 2.3 mph - 0.02 in   Unknown
5:00 AM 39.6 °F - 38.3 °F 95% 30.01 in - Calm Calm - N/A   Unknown
6:00 AM 39 °F - 38 °F 94% 30.02 in - ESE 1.2 mph - -  
6:00 AM 38.8 °F - 37.9 °F 97% 30.02 in - ESE 1.2 mph - N/A   Unknown
7:00 AM 38.8 °F - 38.1 °F 97% 30.00 in - Calm Calm - N/A   Unknown
8:00 AM 38.8 °F - 38.1 °F 97% 30.03 in - South 1.2 mph - 0.01 in   Unknown
9:00 AM 39.7 °F - 38.8 °F 97% 30.04 in - ENE 1.2 mph - 0.04 in   Unknown
10:00 AM 39.0 °F 36.8 °F 37.8 °F 95% 30.05 in - East 3.5 mph - 0.02 in   Unknown
11:00 AM 38.1 °F 34.6 °F 36.5 °F 94% 30.08 in - East 4.6 mph - 0.02 in   Unknown
12:00 PM 37 °F - 36 °F 94% 30.09 in - ESE 4.6 mph - -  
12:00 PM 37.2 °F 33.6 °F 36.0 °F 95% 30.09 in - ESE 4.6 mph - 0.01 in   Unknown
1:00 PM 36.0 °F 32.1 °F 34.2 °F 93% 30.10 in - East 4.6 mph - 0.02 in   Unknown
2:00 PM 36.0 °F - 34.7 °F 95% 30.10 in - SE 2.3 mph - 0.04 in   Unknown
3:00 PM 37.2 °F - 35.6 °F 94% 30.09 in - Calm Calm - N/A   Unknown
5:00 PM 37.6 °F - 35.4 °F 92% 30.11 in - Calm Calm - N/A   Unknown
6:00 PM 37 °F - 35 °F 92% 30.11 in - WNW 1.2 mph - -  
6:00 PM 36.7 °F - 35.4 °F 95% 30.11 in - WNW 1.2 mph - N/A   Unknown
7:00 PM 34.7 °F - 34.0 °F 97% 30.12 in - SSE 1.2 mph - N/A   Unknown
8:00 PM 33.1 °F - 31.5 °F 94% 30.13 in - WSW 1.2 mph - N/A   Unknown
9:00 PM 31.8 °F - 31.8 °F 100% 30.14 in - South 1.2 mph - N/A   Unknown
10:00 PM 30.6 °F - 30.0 °F 98% 30.14 in - West 1.2 mph - N/A   Unknown